Location: Hertford
(51.8000°N, 0.0667°W)
Time: 13:07:00
(UTC+00:00)

Cosmos 1513 Rocket - Visible Passes

Search period start: 16 January 2021 00:00
Search period end: 26 January 2021 00:00
Orbit: 939 x 1009 km, 82.9° (Epoch: 15 January)

Date Brightness Start Highest point End Pass type
(mag) Time Alt. Az. Time Alt. Az. Time Alt. Az.
16 Jan 6.5 04:35:59 10° SE 04:41:09 27° E 04:46:16 10° NNE visible
16 Jan 4.5 06:19:46 10° SSW 06:26:03 64° WNW 06:32:18 10° N visible
16 Jan 5.2 17:09:35 10° NNW 17:15:36 58° W 17:21:31 10° S visible
16 Jan 7.5 18:58:12 10° WNW 18:59:35 11° WNW 19:00:57 10° W visible
17 Jan 5.6 04:59:52 10° SSE 05:05:48 44° E 05:11:40 10° NNE visible
17 Jan 4.9 06:45:18 10° SW 06:51:13 40° WNW 06:57:05 10° N visible
17 Jan 6.1 17:34:50 10° NNW 17:40:19 36° W 17:45:44 10° SSW visible
18 Jan 7.2 03:43:16 10° ESE 03:46:21 14° ENE 03:49:25 10° NE visible
18 Jan 4.8 05:24:18 10° S 05:30:36 71° E 05:36:49 10° NNE visible
18 Jan 5.4 07:11:22 10° WSW 07:16:33 26° WNW 07:21:43 10° N visible
18 Jan 6.9 18:00:23 10° NNW 18:04:53 22° W 18:09:20 10° SW visible
19 Jan 6.6 04:06:00 10° SE 04:10:47 23° E 04:15:32 10° NNE visible
19 Jan 4.4 05:49:14 10° SSW 05:55:33 74° WNW 06:01:48 10° N visible
19 Jan 7.3 18:26:42 10° NW 18:29:16 13° WNW 18:31:50 10° W visible
20 Jan 5.8 04:29:41 10° SSE 04:35:23 38° E 04:41:02 10° NNE visible
20 Jan 4.7 06:14:36 10° SW 06:20:39 46° WNW 06:26:39 10° N visible
20 Jan 5.9 17:04:13 10° NNW 17:09:53 41° W 17:15:30 10° SSW visible
21 Jan 7.3 03:13:59 10° E 03:16:04 12° ENE 03:18:08 10° NE visible
21 Jan 4.9 04:53:57 10° S 05:00:08 61° E 05:06:16 10° NNE visible
21 Jan 5.2 06:40:30 10° SW 06:45:56 30° WNW 06:51:19 10° N visible
21 Jan 6.7 17:29:40 10° NNW 17:34:30 25° W 17:39:18 10° SW visible
22 Jan 6.8 03:36:06 10° ESE 03:40:27 20° E 03:44:46 10° NE visible
22 Jan 4.4 05:18:43 10° S 05:25:03 85° W 05:31:18 10° N visible
22 Jan 5.7 07:07:01 10° WSW 07:11:23 19° WNW 07:15:44 10° NNW visible
22 Jan 7.2 17:55:38 10° NW 17:58:57 15° WNW 18:02:16 10° WSW visible
23 Jan 6.0 03:59:32 10° SE 04:05:00 32° E 04:10:24 10° NNE visible
23 Jan 4.5 05:43:58 10° SSW 05:50:06 53° WNW 05:56:11 10° N visible
24 Jan 5.2 04:23:39 10° SSE 04:29:42 52° E 04:35:41 10° NNE visible
24 Jan 5.0 06:09:42 10° SW 06:15:19 34° WNW 06:20:54 10° N visible
25 Jan 6.9 03:06:19 10° ESE 03:10:07 17° ENE 03:13:54 10° NE visible
25 Jan 4.4 04:48:16 10° S 04:54:33 84° E 05:00:46 10° N visible
25 Jan 5.5 06:36:00 10° WSW 06:40:43 22° WNW 06:45:25 10° N visible
25 Jan 7.0 17:24:43 10° NW 17:28:37 18° WNW 17:32:30 10° WSW visible
